This is the latest recevied weather packets stored in our database for station/object OK2ZAW-18. If no packets are shown the sender has not sent any weather packets the latest 10 day(s).
| Time | Temp. | Humidity | Pressure | Rain* | Wind** | Luminosity | Snow |
|---|---|---|---|---|---|---|---|
| 1777990941 | 30° C | 29% | 936.4 hPa | - | - | - | - |
| 1777989140 | 29.44° C | 30% | 936.8 hPa | - | - | - | - |
| 1777988240 | 28.89° C | 30% | 937 hPa | - | - | - | - |
| 1777987340 | 28.89° C | 30% | 937.1 hPa | - | - | - | - |
| 1777986440 | 28.89° C | 30% | 937.2 hPa | - | - | - | - |
| 1777984640 | 28.33° C | 31% | 937.3 hPa | - | - | - | - |
| 1777983740 | 27.78° C | 31% | 937.6 hPa | - | - | - | - |
| 1777981940 | 27.22° C | 31% | 937.7 hPa | - | - | - | - |
| 1777979248 | 26.11° C | 33% | 937.9 hPa | - | - | - | - |
| 1777976539 | 25.56° C | 33% | 938.1 hPa | - | - | - | - |
| 1777974751 | 25.56° C | 33% | 938.2 hPa | - | - | - | - |
| 1777974751 | 25.56° C | 33% | 938.2 hPa | - | - | - | - |
| 1777974739 | 25.56° C | 33% | 938.2 hPa | - | - | - | - |
| 1777972940 | 25.56° C | 33% | 938.4 hPa | - | - | - | - |
| 1777972039 | 25.56° C | 32% | 938.5 hPa | - | - | - | - |
| 1777970239 | 25° C | 32% | 938.4 hPa | - | - | - | - |
| 1777968439 | 25° C | 32% | 938.6 hPa | - | - | - | - |
| 1777967539 | 25° C | 32% | 938.8 hPa | - | - | - | - |
| 1777966639 | 25° C | 32% | 938.7 hPa | - | - | - | - |
| 1777965738 | 25° C | 32% | 938.8 hPa | - | - | - | - |
| 1777963938 | 25° C | 34% | 939 hPa | - | - | - | - |
| 1777962138 | 25.56° C | 35% | 939 hPa | - | - | - | - |
| 1777960338 | 25° C | 35% | 939.2 hPa | - | - | - | - |
| 1777959438 | 25° C | 35% | 939.2 hPa | - | - | - | - |
| 1777958538 | 25° C | 35% | 939.2 hPa | - | - | - | - |
* Rain since midnight (hover to see other rain measurements)
** Current wind speed in m/s (hover to see current wind gust speed)